Regional Weather Roundup
Issued by NWS Huntsville, AL

Home | Current Version | Previous Version | Text Only | Print | Product List | Glossary On
Versions: 1 2 3 4 5 6 7 8 9 10 11 12 13 14 15 16 17 18 19 20 21 22 23 24 25 26 27
000
ASUS44 KHUN 260610
RWRHUN

WEATHER ROUNDUP FOR THE TENNESSEE VALLEY
NATIONAL WEATHER SERVICE HUNTSVILLE AL
100 AM CDT TUE JUL 26 2016

ALZ001>004-260700-
NORTHWEST ALABAMA

CITY           SKY/WX    TMP DP  RH WIND       PRES   REMARKS
SHOALS AIRPORT PTCLDY    77  73  87 CALM      30.02S
6HR MIN TEMP:  77; 6HR MAX TEMP:  91;

SHOALS TVA RES   N/A     77 N/A N/A MISG        N/A
$$

ALZ005>007-016-260700-
NORTH CENTRAL ALABAMA

CITY           SKY/WX    TMP DP  RH WIND       PRES   REMARKS
DECATUR AP     CLOUDY    80  72  76 S9        30.02F
6HR MIN TEMP:  78; 6HR MAX TEMP:  95;

HUNTSVILLE AP  MOCLDY    80  70  71 S10       30.02F
6HR MIN TEMP:  80; 6HR MAX TEMP:  96;

MERIDIANVILLE  PTCLDY    81  64  57 SW10      30.04S
REDSTONE ARSN  CLOUDY    78  73  83 SW7       30.02F
VINEMONT AP    FAIR      74  72  94 S3        30.08S
$$

ALZ008>010-260700-
NORTHEAST ALABAMA

CITY           SKY/WX    TMP DP  RH WIND       PRES   REMARKS
ALBERTVILLE    PTCLDY    73  73 100 CALM      30.07F
FORT PAYNE     CLOUDY    73  68  83 CALM      30.08R
SCOTTSBORO AP  MOCLDY    81  72  74 SW3       30.06S
SCOTTSBORO HCN   N/A     79 N/A N/A MISG        N/A
VALLEY HEAD      N/A     79 N/A N/A MISG        N/A
$$

TNZ076-096-097-260700-
SOUTHEASTERN MIDDLE TENNESSEE

CITY           SKY/WX    TMP DP  RH WIND       PRES   REMARKS
TULLAHOMA      CLEAR     73  73 100 CALM      30.06R
WINCHESTER     MOCLDY    75  72  88 SE6       30.05R
$$

...SURROUNDING SITES...

CITY           SKY/WX    TMP DP  RH WIND       PRES   REMARKS
ATLANTA        PTCLDY    77  74  90 NW5       30.07F
ANNISTON       MOCLDY    76  73  91 E5        30.06F
BIRMINGHAM     PTCLDY    76  73  91 CALM      30.06F
CHATTANOOGA    MOCLDY    79  74  84 CALM      30.05S
DALTON         CLOUDY    77  73  88 CALM      30.06F
GADSDEN        CLOUDY    76  73  91 NE3         N/A
GOLDEN TRNGL   PTCLDY    82  70  65 SE9       29.98S
HALEYVILLE     FAIR      76  73  91 CALM      30.06S
JACKSON TN     CLEAR     76  75  97 CALM      30.00S
MEMPHIS        CLEAR     83  75  77 E5        29.98F HX  90
NASHVILLE      CLEAR     79  72  79 N5        30.03R
OXFORD MS      FAIR      75  72  88 E3        30.00F
ROME           LGT RAIN  75  74  96 S6        30.07F
SAVANNAH       CLEAR     73  72  94 CALM      30.00S
TUPELO           N/A     79  73  82 MISG        N/A
TUSCALOOSA     CLEAR     80  72  76 E5        30.01F
$$

...GULF COAST WEATHER...

CITY           SKY/WX    TMP DP  RH WIND       PRES   REMARKS
GULFPORT       CLEAR     78  76  93 NE7       29.92F
PASCAGOULA     CLEAR     78  78 100 NE5       29.94F
MOBILE         CLEAR     78  75  90 MISG      29.97S
GULF SHORES    PTCLDY    82  77  85 SE5       29.96S HX  90
PENSACOLA      MOCLDY    84  75  74 S14       29.95F HX  92
DESTIN         PTCLDY    86  77  74 S9        29.98S HX  97
PANAMA CITY    PTCLDY    83  74  74 S10       30.00F
APPALACHICOLA  CLEAR     83  76  79 S12G20    30.01F HX  91
$$





USA.gov is the U.S. government's official web portal to all federal, state and local government web resources and services.